Location: Antioch Church
(34.9543°N, 88.5145°W)
Time: 05:43:30
(UTC+00:00)

Cosmos 1553 Rocket - Pass Details

Date: 11 December 2019
Orbit: 942 x 1007 km, 82.9° (Epoch: 22 January)

Event Time Altitude Azimuth Distance (km) Brightness Sun altitude
Rises 00:40:21 0° 353° (N) 3,722 7.0 -23.4°
Reaches altitude 10° 00:42:53 10° 353° (N) 2,776 6.3 -23.9°
Maximum altitude 00:49:17 86° 266° (W) 1,012 4.0 -25.2°
Drops below altitude 10° 00:55:41 10° 177° (S) 2,773 6.4 -26.5°
Sets 00:58:12 0° 177° (S) 3,718 7.1 -27.0°
